User: anonymous   Login
Location: NJAA Observatory
(40.6819°N, 74.8979°W)
Time: 20:14:35
(UTC-04:00)
Language:

Iridium 84 - Orbit

View from above orbital plane
View from above orbital plane
View from above satellite
View from above satellite

Ground track
Ground track

The orbit data is extracted from the following two-line orbital elements,

1 25530U 98066D   17268.61150414 +.00000071 +00000-0 +18460-4 0  9991
2 25530 086.3935 307.9789 0002292 094.5747 265.5711 14.34219834991325
Epoch (UTC): 25 September 2017 14:40:33
Eccentricity: 0.0002292
inclination: 86.3935°
perigee height: 776 km
apogee height: 779 km
right ascension of ascending node: 307.9789°
argument of perigee: 94.5747°
revolutions per day: 14.34219834
mean anomaly at epoch: 265.5711°
orbit number at epoch: 99132

The dashed part of the orbit path shows where the satellite is in the earth's shadow,  

DLR